User: anonymous   Login
Location: Unspecified
(0.0000°N, 0.0000°E)
Time: 00:52:51
(UTC+00:00)
Language:

ONEWEB-0655 - Orbit

View from above orbital plane
View from above orbital plane
View from above satellite
View from above satellite

Ground track
Ground track

The orbit is defined by the following mean orbital elements,

1 54677U          26145.51818451 +.00000000 +00000-0 +26181-3 0 00004
2 54677  87.9252 248.4991 0002014  92.8532 267.2833 13.21825593    07
Epoch (UTC): 25 May 2026 12:26:11
Eccentricity: 0.0002014
inclination: 87.9252°
perigee height: 1176 km
apogee height: 1179 km
right ascension of ascending node: 248.4991°
argument of perigee: 92.8532°
revolutions per day: 13.21825593
mean anomaly at epoch: 267.2833°

The dashed part of the orbit path shows where the satellite is in the earth's shadow,  

DLR